Terug naar catalogus

STARLINK-2743

ActiefCommunicatieVLEO
NORAD 48682·PAYLOAD·🇺🇸 United States

Gelanceerd May 26, 2021 vanaf Cape Canaveral Space Force Station

Loading…

Volgende Passages (komende 24 uur)

TLE

VersSource: CelesTrak SupGP

Epoch: Sep 15, 2026, 00:53 UTC

1 48682C 21044AW  26258.03729167  .00015548  00000+0  49996-3 0  2587
2 48682  53.1587 263.8219 0001434  96.0511   2.1941 15.31694388    10

Volg STARLINK-2743 in realtime met AllMySat

Download on the App Store